Lapse_Rate
7.7 7.7 7.8 7.6 7.2 6.8 7.1 8.1 7.8 7.6 7.7 7.8 8.1 8.1 8.4 8.4 8.3 7.9 7.7 7.7 7.4 6.9 6.9 6.8 6.7 6.6 6.5 6.7 6.7 6.7 6.8 7.0 7.1 7.0 7.1 7.0 6.5 6.3 6.5 6.5 6.5 6.4 6.3 6.3 6.4 6.4 6.4 6.2 6.0
7.9 7.8 7.5 7.2 7.4 7.5 8.4 8.3 8.1 7.8 7.3 7.5 7.9 8.1 8.1 8.1 8.1 7.7 7.4 7.1 7.0 6.6 6.6 6.5 6.6 6.9 6.8 6.8 6.8 6.8 6.8 7.0 7.1 6.9 7.1 6.9 6.9 6.5 6.5 6.4 6.4 6.3 6.3 6.4 6.5 6.4 6.4 6.2 6.1
7.6 7.6 7.3 7.2 7.6 8.4 8.7 8.4 8.2 7.7 7.6 7.8 8.1 8.0 8.1 8.4 8.4 8.3 7.4 6.8 6.2 6.3 6.5 6.6 6.8 6.8 6.7 6.7 6.8 6.7 6.7 7.1 6.8 6.8 6.9 7.3 6.6 6.6 6.4 6.3 6.2 6.2 6.3 6.4 6.3 6.2 6.2 6.0 5.9
7.8 7.7 7.1 7.5 8.5 8.9 8.5 8.2 7.6 7.8 8.1 7.7 7.7 7.9 7.8 7.6 7.4 7.4 7.0 6.3 6.5 6.4 6.3 6.3 6.1 6.4 6.3 6.4 6.7 6.6 6.8 7.0 6.9 6.7 7.2 7.1 6.6 6.7 6.3 6.3 6.1 6.2 6.3 6.3 6.2 6.1 6.0 6.0 5.8
7.9 7.7 7.5 8.2 8.4 8.2 8.0 7.9 7.1 7.2 7.3 7.4 7.4 7.8 7.5 7.0 6.7 6.8 6.1 6.1 6.2 5.9 5.9 5.6 5.0 5.6 5.8 6.1 6.3 6.4 6.6 6.9 6.7 7.0 7.4 6.9 7.0 6.6 6.3 6.2 6.2 6.3 6.2 6.2 6.2 6.1 6.0 6.0 5.8
7.9 7.7 7.8 8.6 8.3 7.8 7.7 7.9 7.5 7.6 7.4 7.1 7.1 6.9 6.9 6.5 6.3 6.3 6.1 6.0 5.8 6.0 5.3 4.9 4.6 4.9 5.1 5.6 5.7 6.2 6.4 6.7 7.3 7.3 7.1 7.1 6.8 6.5 6.4 6.3 6.3 6.2 6.1 6.0 6.1 6.2 6.3 6.4 6.2
8.3 8.0 8.4 8.2 8.5 8.0 8.1 8.1 8.0 7.8 6.9 6.8 6.4 6.5 6.5 6.4 6.2 6.1 6.1 6.3 4.7 5.1 5.0 5.3 4.7 4.4 4.4 4.8 5.0 5.8 6.3 7.6 7.8 7.0 7.1 6.8 6.8 6.6 6.4 6.6 6.4 6.1 6.0 6.3 6.2 5.9 6.1 5.9 6.0
8.4 8.0 8.2 8.3 8.3 8.5 7.6 7.9 7.8 8.0 7.1 7.2 6.8 6.5 6.4 6.4 6.4 6.5 5.8 6.1 5.7 5.2 5.4 5.2 4.7 4.3 4.6 4.9 5.4 6.2 7.1 7.6 7.5 7.4 7.2 7.0 6.6 6.5 6.4 6.1 6.0 6.1 6.1 6.1 6.0 5.7 5.8 6.3 6.2
8.4 8.1 8.8 8.8 8.5 8.3 8.4 8.3 8.4 8.0 7.5 6.9 6.6 6.6 6.4 6.4 6.4 6.0 6.1 5.8 4.8 4.4 4.5 4.8 4.7 5.2 4.9 5.4 6.0 6.6 7.4 7.7 7.3 7.2 6.9 6.6 6.4 6.2 6.2 6.1 6.4 6.3 6.1 6.2 6.0 5.7 5.6 6.0 6.1
8.4 8.5 8.6 8.8 8.7 8.6 8.3 8.2 7.7 7.6 7.2 7.1 7.0 6.9 6.4 6.2 5.9 5.9 6.0 6.0 5.3 4.9 5.2 4.6 4.5 5.0 5.3 5.9 6.8 7.3 7.7 7.5 7.3 7.0 6.7 6.8 6.5 6.4 6.3 6.2 6.4 6.3 5.8 5.5 5.6 5.7 5.7 6.1 6.3
8.6 8.9 8.9 8.9 8.6 8.3 8.5 8.1 7.5 7.1 6.6 6.7 6.8 6.9 6.4 6.1 6.1 5.7 6.0 5.4 5.5 4.2 5.2 5.0 4.9 5.4 6.7 7.0 7.0 7.1 7.2 7.0 6.9 6.7 6.6 6.2 6.2 6.3 6.3 6.3 6.3 5.9 5.5 5.3 5.4 5.6 6.0 5.9 6.2
8.9 8.9 8.9 8.9 8.5 8.5 8.1 7.8 7.1 7.0 6.9 6.7 6.6 7.0 6.3 6.7 6.6 6.4 6.1 5.9 5.8 5.8 5.3 6.4 6.8 6.7 6.8 6.8 7.0 6.9 6.9 6.7 6.7 6.6 6.5 6.6 6.4 6.3 6.3 6.3 6.3 6.1 5.8 5.7 5.8 5.7 5.9 6.0 5.9
8.9 9.0 9.0 8.9 8.5 8.3 8.0 7.5 7.1 7.2 7.1 6.9 6.8 6.8 7.0 6.7 6.7 6.2 6.0 6.2 6.5 7.3 6.8 6.6 6.4 6.4 6.7 6.9 6.9 6.8 6.8 6.6 6.6 6.7 6.6 6.5 6.4 6.4 6.3 6.1 6.0 6.0 5.8 6.0 6.0 5.7 5.7 5.7 5.7
9.1 9.2 9.0 8.6 8.2 8.1 8.0 7.5 7.2 6.9 7.0 7.1 7.1 7.3 6.6 7.1 7.3 6.9 6.9 7.0 7.0 7.1 6.6 6.6 6.7 6.5 6.5 6.5 6.7 6.8 6.8 6.7 6.6 6.5 6.5 6.5 6.4 6.3 6.1 5.8 5.8 5.9 5.8 5.8 5.6 5.7 5.9 6.0 5.9
9.0 8.6 8.5 8.3 8.3 8.1 8.0 7.7 7.6 7.4 6.9 7.7 7.3 7.5 7.4 7.6 7.2 6.8 6.9 6.5 6.8 6.9 6.5 6.5 6.5 6.5 6.7 6.9 6.9 6.9 6.8 6.9 6.9 6.7 6.4 6.3 6.3 6.3 6.0 5.7 5.6 5.7 5.8 5.8 5.8 5.9 6.1 6.2 6.2
9.0 8.3 8.3 8.3 8.3 8.4 8.2 7.9 7.8 7.6 7.7 7.7 7.6 7.9 7.5 7.4 7.3 7.2 7.1 7.0 7.2 6.8 6.7 6.8 6.9 6.8 6.9 6.9 7.0 7.1 6.9 6.8 6.6 6.4 6.2 6.0 6.2 6.1 5.9 5.8 5.8 5.9 6.0 6.2 6.3 6.3 6.3 6.3 6.6
8.9 8.8 9.0 8.2 8.7 8.7 8.6 8.2 8.3 8.1 7.7 7.5 7.5 7.3 7.3 7.3 7.6 7.7 7.4 7.2 7.3 7.2 7.1 7.0 7.0 6.7 6.7 6.7 6.9 6.9 7.0 6.9 6.7 6.6 6.2 6.0 5.9 5.9 6.0 6.1 6.2 6.3 6.4 6.4 6.3 6.3 6.5 6.7 6.9
8.9 8.9 9.2 8.8 8.7 8.9 9.0 8.7 8.6 8.2 7.9 7.8 7.6 7.4 7.2 7.5 7.8 7.9 8.0 7.5 7.1 7.2 7.2 7.2 7.1 7.2 7.2 7.1 7.3 7.2 6.9 6.8 6.6 6.4 6.4 6.7 6.7 6.5 6.5 6.4 6.4 6.4 6.3 6.2 6.3 6.5 6.7 6.8 6.9
8.6 8.9 8.9 9.1 8.8 8.9 9.0 9.1 8.7 8.3 7.9 7.6 7.5 7.5 7.7 7.7 7.5 7.5 7.8 7.8 7.5 7.7 7.5 7.4 7.3 7.4 7.4 7.4 7.4 7.1 6.7 6.5 6.5 6.6 6.7 6.7 6.6 6.6 6.6 6.3 6.2 6.2 6.2 6.3 6.4 6.6 6.7 6.8 6.8
8.4 8.2 8.7 8.9 9.1 9.0 9.0 9.1 9.2 8.6 8.2 7.8 7.9 7.7 7.7 7.6 7.4 7.2 7.5 7.8 8.0 8.0 7.8 7.5 7.4 7.3 7.3 7.4 7.2 6.7 6.5 6.6 6.7 6.7 6.6 6.4 6.3 6.3 6.3 6.3 6.4 6.4 6.4 6.4 6.3 6.4 6.5 6.4 6.5
8.5 8.6 8.7 8.9 8.9 8.9 9.3 9.1 8.8 8.8 8.3 8.0 8.1 8.2 8.0 7.9 7.8 7.7 7.8 7.9 8.0 8.2 8.0 7.6 7.5 7.5 7.1 7.0 6.8 6.7 6.7 6.7 6.5 6.4 6.3 6.2 6.1 6.1 6.1 6.2 6.3 6.4 6.3 6.1 6.1 6.3 6.2 6.3 6.4
8.1 8.3 8.5 8.9 9.0 9.0 9.0 8.8 8.9 8.6 8.4 7.9 8.1 8.0 8.0 8.2 7.9 7.8 7.6 7.5 7.6 7.8 7.8 7.7 7.5 7.5 7.0 6.8 6.6 6.7 6.5 6.6 6.5 6.3 6.3 6.2 6.1 6.1 6.3 6.4 6.2 6.2 6.4 6.2 6.5 6.5 6.4 6.6 6.5
8.4 8.3 8.5 8.8 8.6 8.6 8.8 9.0 8.7 8.4 8.3 8.2 8.0 7.8 8.0 8.0 8.1 8.1 8.1 7.9 7.5 7.4 7.3 7.3 7.2 7.1 7.2 7.0 6.8 6.7 6.6 6.7 6.6 6.5 6.4 6.2 6.1 6.4 6.5 6.2 6.1 5.9 5.7 5.8 6.2 6.4 6.6 6.3 6.2
8.2 8.5 8.5 8.6 8.7 8.0 8.6 8.2 8.9 8.4 8.7 8.6 8.4 8.0 8.2 8.0 8.0 7.9 7.7 7.6 7.6 7.4 7.0 7.0 6.8 7.0 6.8 7.0 6.8 6.8 6.8 6.8 6.7 6.5 6.5 6.4 6.5 6.4 6.3 6.1 6.0 5.6 5.6 6.1 6.0 6.0 6.0 5.8 5.6
8.6 8.5 8.0 7.5 6.9 6.9 8.6 8.4 8.8 8.9 8.6 8.7 8.7 8.8 8.2 7.7 7.6 7.7 7.7 7.5 7.5 7.3 7.0 6.8 6.7 6.7 6.5 6.9 7.0 6.8 6.8 6.7 6.5 6.4 6.5 6.5 6.3 6.1 5.8 5.8 6.2 6.3 6.1 6.1 5.2 5.2 5.3 5.6 5.6
8.4 8.3 8.2 7.6 6.2 7.1 8.4 8.1 8.6 8.8 9.1 8.8 8.7 8.6 8.1 7.9 7.7 7.7 7.6 7.4 7.3 7.2 7.0 7.0 7.2 7.1 7.0 7.0 6.9 6.8 6.6 6.5 6.4 6.3 6.2 5.7 5.7 6.1 6.3 6.5 6.3 5.9 5.5 5.6 5.3 5.1 5.4 5.4 5.4
8.8 8.2 8.8 8.6 7.5 7.3 8.3 8.6 8.2 8.5 9.0 8.8 8.7 8.4 8.1 7.9 7.8 7.7 7.7 7.5 7.4 7.3 7.2 7.2 7.1 7.1 6.9 6.8 6.5 6.5 6.2 5.9 5.8 5.8 6.0 6.1 6.4 6.3 6.7 6.4 6.3 6.2 6.3 5.7 5.6 5.2 5.3 5.4 5.2
8.1 8.6 8.8 8.8 7.4 7.2 8.1 8.2 8.3 8.2 8.5 8.6 8.6 8.3 8.1 8.0 7.9 7.7 7.6 7.5 7.4 7.2 7.1 6.9 6.8 6.7 6.7 6.7 6.8 6.6 6.6 6.6 6.4 6.3 6.4 6.5 6.3 6.4 6.4 6.3 6.3 6.2 6.0 5.1 5.1 4.9 4.7 4.9 4.8
8.7 8.7 8.7 8.9 8.7 6.6 6.2 8.3 8.6 8.6 8.6 8.7 8.6 8.6 8.2 7.8 7.7 7.7 7.8 7.7 7.5 7.3 7.0 6.8 6.7 6.3 6.4 6.4 6.8 6.9 6.9 6.8 6.5 6.6 6.7 6.6 6.5 6.4 6.4 6.4 6.0 5.8 5.2 5.1 4.8 4.5 4.4 4.6 4.6
8.6 8.7 8.8 8.7 8.4 8.4 8.2 8.5 8.7 8.6 8.6 8.3 8.1 8.1 7.9 7.8 7.8 7.9 7.8 7.8 7.6 7.4 7.2 6.9 6.7 6.6 6.6 6.7 6.5 6.6 6.6 6.5 6.5 6.4 6.3 6.7 6.4 6.2 6.3 6.2 5.9 5.0 4.8 4.5 4.3 4.3 4.3 4.7 4.6
Wind_Speed
4 5 1 4 3 4 4 7 3 2 2 2 3 10 9 5 1 2 5 7 15 15 23 26 29 28 27 26 25 25 26 26 27 27 26 27 26 23 24 23 22 22 25 25 24 24 24 26 26
3 4 3 2 4 2 5 5 5 4 5 7 3 4 5 4 3 7 6 13 18 18 20 23 29 29 27 26 26 25 26 26 26 25 26 26 26 24 24 22 22 22 24 24 24 25 25 27 30
2 1 3 4 4 6 4 4 6 3 5 3 3 6 3 3 8 7 12 13 18 15 20 24 28 29 27 26 25 25 26 27 26 24 26 26 25 24 24 21 21 21 22 23 24 26 26 26 31
2 4 3 3 10 4 6 1 3 4 1 6 6 7 4 4 4 8 15 15 14 14 21 22 24 30 29 25 25 25 25 26 27 25 26 25 24 24 22 20 20 19 20 21 22 23 26 29 30
3 3 1 3 3 5 5 6 2 2 2 5 1 3 4 6 10 16 14 11 13 12 21 26 25 27 30 25 24 23 24 25 27 26 25 24 24 22 21 19 18 16 18 19 19 21 25 28 29
3 3 1 4 3 2 1 5 1 4 7 4 4 5 4 7 9 9 5 7 13 13 20 21 28 27 27 25 23 22 23 24 26 25 25 24 23 21 20 19 16 15 15 17 17 20 24 28 28
4 3 4 2 3 3 4 3 2 1 5 6 3 4 2 11 9 13 13 13 11 14 16 19 18 22 20 22 21 22 22 22 24 24 24 22 22 21 19 18 17 15 15 14 17 17 16 18 24
4 4 3 3 2 4 2 3 9 13 6 10 3 4 4 3 11 15 18 17 18 18 13 15 14 14 10 14 20 21 21 21 23 23 24 23 22 21 19 17 15 14 13 14 17 20 19 16 17
3 0 6 3 1 4 4 3 3 4 7 5 4 5 13 15 15 14 14 14 18 12 9 11 11 10 10 12 15 19 22 24 22 21 21 20 17 17 16 16 14 12 10 14 16 17 17 17 15
3 2 3 6 6 6 7 1 3 3 8 6 14 18 13 16 16 14 11 12 16 15 12 9 13 11 14 14 14 15 15 14 15 15 17 16 15 14 13 14 13 11 10 11 14 16 18 17 17
3 6 4 4 5 6 7 2 2 2 4 7 15 18 12 15 15 16 15 15 17 14 10 11 12 13 11 12 12 12 14 12 14 15 14 12 8 7 8 10 7 8 8 15 15 17 19 19 17
3 9 2 4 6 5 5 5 2 3 3 9 16 19 18 18 18 19 20 17 16 13 9 11 14 13 11 11 10 10 10 10 10 8 9 10 8 9 7 10 7 9 14 13 15 16 16 17 15
6 7 1 11 8 5 6 6 5 2 9 18 18 21 19 17 16 12 12 12 10 14 12 7 14 10 11 9 8 8 9 9 10 13 14 18 12 8 9 12 16 14 12 13 13 13 14 15 16
5 7 11 9 7 2 6 2 9 4 13 17 16 18 16 17 19 15 12 12 12 13 14 11 14 11 11 7 9 8 9 13 13 14 16 15 16 15 13 12 12 12 13 14 16 14 12 12 13
4 6 7 7 2 5 4 4 5 6 6 16 15 16 14 16 18 18 14 13 15 14 13 13 10 11 8 8 11 8 12 14 11 11 12 15 18 17 16 12 9 11 13 16 17 14 14 10 10
5 8 5 7 9 2 1 5 3 10 7 8 10 12 13 17 20 16 17 17 16 14 14 10 9 9 9 9 10 10 12 13 11 11 12 15 17 19 15 10 8 9 13 15 10 5 4 5 4
5 3 5 3 6 8 5 4 5 6 11 8 8 10 14 17 18 17 18 18 17 15 13 9 11 11 9 10 11 11 12 11 9 10 12 15 16 15 14 11 9 13 12 8 6 4 3 2 1
4 2 2 4 5 4 4 5 2 7 14 12 10 8 14 16 20 20 20 18 15 12 13 11 10 10 8 8 8 6 7 7 9 9 10 12 12 14 14 11 11 13 8 4 3 3 2 2 2
4 1 4 7 8 6 9 7 9 9 9 9 10 10 14 17 17 18 18 17 14 12 12 14 13 10 9 6 4 3 4 2 2 6 10 12 13 13 11 9 10 10 4 4 4 2 2 1 1
3 7 10 9 5 7 6 7 6 9 11 17 15 13 14 12 15 15 17 15 16 14 13 13 12 12 9 6 3 3 3 3 3 6 9 10 12 15 14 13 9 10 4 5 4 3 1 1 1
6 3 8 8 2 1 6 6 4 5 5 7 12 18 16 19 20 16 17 17 15 14 15 14 14 12 9 6 4 3 4 5 2 1 2 8 16 17 18 15 12 9 6 3 2 2 3 2 2
5 10 16 6 5 2 3 4 4 6 8 11 9 10 14 14 16 17 18 17 17 14 14 14 13 12 9 8 6 7 7 6 4 4 3 7 17 14 13 11 8 7 6 4 2 3 2 3 2
7 1 6 3 3 3 3 4 6 5 6 10 12 15 15 17 19 18 20 23 20 15 14 12 12 12 12 9 9 10 7 5 3 3 7 6 8 8 10 11 12 10 8 6 4 3 3 1 1
4 4 6 4 2 1 1 2 4 5 16 14 6 12 11 12 14 15 9 14 13 11 12 12 13 13 11 12 10 12 11 8 6 5 6 4 3 5 12 14 12 9 9 5 3 3 3 1 2
3 5 3 5 4 5 5 4 8 6 8 9 10 9 11 11 10 9 12 14 13 16 15 13 16 13 11 10 9 9 10 10 12 9 5 6 4 3 3 5 6 5 8 6 4 3 4 3 1
2 5 5 4 2 4 3 4 5 8 8 7 1 7 8 10 13 13 13 13 15 15 14 13 13 8 7 7 8 7 7 4 4 5 5 5 4 3 10 9 9 5 3 4 6 4 3 4 3
2 3 4 6 3 3 4 5 5 5 6 4 6 6 7 8 10 14 11 11 12 12 12 12 10 7 8 7 5 8 8 8 8 7 6 5 5 7 8 7 8 4 3 6 6 3 2 3 1
6 3 2 3 3 3 4 4 4 1 3 2 4 7 7 7 8 7 9 11 8 9 8 9 10 10 10 9 9 8 8 8 8 7 7 7 6 9 6 6 2 2 2 4 4 2 2 3 1
1 2 1 4 4 4 1 5 5 8 8 8 8 8 10 10 12 12 9 9 10 8 9 8 11 13 13 12 9 11 8 8 8 7 6 6 6 6 5 6 4 2 1 4 3 2 2 3 2
1 4 5 4 4 1 4 5 4 8 7 8 9 7 7 10 12 13 14 14 13 12 11 12 12 13 11 12 12 12 12 10 8 7 7 6 6 8 7 6 4 1 1 4 3 3 3 4 3
Wind_Direction
183 190 150 51 59 68 253 257 247 314 111 293 53 102 103 50 338 192 90 136 133 143 137 134 131 128 125 124 122 118 115 112 111 108 105 104 103 100 95 92 88 85 81 74 67 61 58 55 43
177 158 45 91 95 82 267 251 200 231 164 179 82 106 54 78 79 110 89 136 143 137 136 135 131 126 125 125 122 121 118 114 109 108 108 107 105 103 97 93 89 84 81 75 67 61 56 54 48
221 147 100 132 139 205 228 238 180 234 184 165 92 52 79 55 114 141 122 130 134 133 135 139 131 127 125 125 123 122 120 117 113 113 110 109 108 104 99 93 90 86 81 76 65 57 52 48 60
103 19 16 110 240 278 244 110 238 157 58 64 104 63 48 3 332 136 138 133 134 134 138 130 129 126 122 123 124 124 121 119 119 116 114 113 109 104 99 94 90 89 86 79 68 57 51 46 52
42 77 27 234 44 300 0 39 304 120 21 44 11 114 63 29 66 116 135 137 136 133 138 132 128 119 119 124 125 125 126 124 122 119 116 118 114 111 108 103 100 97 93 87 76 64 58 54 49
20 95 67 254 123 354 14 346 213 352 21 354 52 94 61 46 65 83 97 125 122 127 129 127 125 117 117 126 130 132 132 129 124 124 126 124 123 121 114 110 105 99 93 84 74 67 63 57 52
144 91 245 290 243 195 257 357 57 18 58 2 115 67 82 57 77 89 67 97 90 99 107 89 106 103 124 129 137 138 133 130 127 132 131 132 128 123 120 119 114 105 96 91 80 69 69 59 54
134 115 281 261 312 237 231 277 165 135 202 150 136 136 152 144 96 103 100 95 86 81 69 92 99 95 116 142 144 138 136 138 141 139 136 137 134 129 126 123 119 112 104 95 83 78 76 78 60
136 289 250 248 177 204 266 166 283 356 79 40 24 89 126 124 113 105 111 114 108 118 128 112 129 168 158 148 144 146 149 152 144 141 139 135 133 133 134 133 130 125 114 94 83 81 81 81 67
118 204 251 202 159 195 171 252 329 47 98 68 88 102 115 122 121 117 114 106 122 137 156 152 185 167 164 161 164 166 154 148 144 144 149 144 142 140 141 144 136 135 97 82 84 87 71 61 56
206 231 215 233 192 101 160 131 293 67 69 184 148 138 133 130 125 127 114 137 145 168 170 180 179 178 177 168 174 165 152 150 151 156 153 140 145 121 140 111 111 89 82 95 91 76 75 70 61
230 258 197 161 118 139 167 155 77 157 196 160 137 140 138 143 155 149 139 163 157 164 183 179 175 188 179 168 178 167 143 155 159 156 167 175 142 145 150 128 115 124 111 97 88 84 77 71 58
200 273 80 116 134 184 127 77 124 47 99 115 134 137 149 147 150 166 164 154 160 164 205 208 177 191 175 167 176 155 149 161 128 108 127 141 147 151 129 116 114 117 115 110 98 85 70 58 46
295 251 119 115 166 127 112 158 125 243 135 130 144 143 162 160 167 177 174 165 171 184 198 195 189 181 168 157 157 166 146 126 130 127 120 117 124 121 116 114 116 123 124 102 92 79 71 58 52
260 81 30 102 266 149 140 27 108 147 155 148 156 153 172 162 169 176 179 177 183 191 194 182 176 159 147 145 148 127 127 138 127 121 127 125 131 130 130 136 136 132 115 102 87 76 69 57 43
40 103 124 246 211 207 60 263 244 164 146 174 154 159 161 168 177 179 180 181 185 182 171 158 152 144 143 126 122 130 134 119 122 129 133 133 139 136 134 125 120 119 106 98 92 93 70 60 53
12 172 158 146 246 173 183 198 208 181 156 188 174 162 168 172 179 178 186 184 182 176 162 143 144 150 127 127 128 129 122 114 129 131 135 138 138 141 130 120 111 113 110 106 102 65 105 104 54
296 317 22 138 237 284 175 205 181 153 162 190 183 177 175 176 180 180 174 180 176 170 162 145 145 137 128 128 118 100 104 132 145 148 151 146 149 138 129 113 106 123 107 95 94 111 72 135 169
285 280 352 266 211 166 205 201 202 170 173 194 194 179 170 177 177 175 173 175 171 170 157 157 150 151 143 143 132 123 150 147 131 169 165 168 146 134 120 119 120 124 111 121 123 108 92 27 28
351 19 296 299 240 163 205 224 238 176 191 196 192 181 175 165 164 174 173 172 174 166 168 160 162 163 164 156 146 151 146 170 159 168 176 167 142 143 143 142 142 139 129 115 105 115 109 271 231
289 198 268 241 158 207 134 318 204 230 136 177 197 185 178 173 171 168 175 175 172 171 174 169 172 171 169 167 148 94 74 69 76 124 185 190 165 164 154 156 153 147 129 133 145 142 156 197 291
218 237 255 293 42 251 137 227 277 195 201 184 197 197 183 181 177 166 172 173 176 176 176 174 171 171 179 181 150 157 169 167 191 171 177 172 166 165 164 156 137 119 105 102 109 116 148 151 232
249 292 263 331 301 94 303 98 261 167 196 205 203 196 191 181 174 169 175 179 182 165 172 172 167 179 192 190 173 175 184 177 149 150 164 169 175 148 139 137 124 116 115 111 98 65 44 133 167
319 354 41 37 40 73 355 156 275 202 211 209 181 188 195 187 186 183 160 166 166 164 168 169 178 184 198 197 178 184 183 169 153 166 175 164 100 96 106 118 118 116 100 79 77 86 80 61 254
113 67 330 357 6 220 306 103 240 233 252 217 189 176 176 181 178 157 150 162 165 171 177 178 185 195 187 188 179 184 178 172 177 175 155 125 108 101 94 93 87 88 109 104 73 44 13 11 316
263 165 158 221 225 274 259 223 258 276 224 216 126 147 149 168 170 170 161 166 179 176 181 180 187 186 164 160 165 155 148 127 115 118 121 118 120 98 105 97 106 101 87 85 54 56 62 61 53
346 192 200 105 14 41 264 291 337 340 37 58 114 113 145 142 168 172 163 175 175 174 184 177 175 161 142 133 121 113 115 118 118 105 105 112 115 133 135 123 98 67 27 38 91 98 74 49 4
177 234 91 10 151 244 290 305 236 173 276 7 160 161 159 149 156 162 168 168 177 175 169 171 158 151 148 144 132 128 128 123 125 130 140 137 132 118 114 81 115 172 52 105 104 101 63 78 41
38 270 147 126 139 171 186 271 228 205 202 202 215 189 173 176 170 175 176 174 171 161 151 151 149 153 154 148 144 141 146 147 136 134 138 136 129 124 131 196 174 204 70 165 159 172 132 128 136
150 262 152 123 236 105 145 270 264 218 205 190 215 216 208 190 179 177 175 170 169 171 165 167 170 160 165 157 154 150 147 140 136 133 139 136 161 180 182 167 177 167 194 192 188 186 169 181 194